Content
SEND FEEDBACK

Daily
Averages
Monthly
Summary
United States of America

MANGILAO, GUAM


Home > North America > United States > Guam
Elevation: 60 feet     Latitude: 13 27N     Longitude: 144 49E

WEATHER
 
SELECT A DAY
Number of Records: 351,545;   Date Range: 1/1/95 - 10/19/14
 
SHARE

PRINT THIS DATA

[ ← Previous Day ]
WEATHER ALMANAC - FEBRUARY 21, 2013
[ Next Day → ]
[ °C ]   °F
Weather ElementAverageHighLow
Temperature78.7 °F84.6 °F (1:55 pm)75.2 °F (2:40 am)
Dewpoint72.2 °F73.8 °F (10:55 am)70.9 °F (4:55 am)
Humidity80.3 %94 % (2:40 am)66 % (1:55 pm)
Barometer29.83 in29.88 in (9:23 pm)29.78 in (3:00 am)
Wind Speed17.8 mph23 mph (10:16 am)
Wind Gust27.6 mph (4:55 am)
Weather ElementAverage
Visibility10 mi
Wind DirectionENE (58.1 °)

Weather ElementTotal
Precipitation---
Cooling Degree Days14.9 (Base 65)
Growing Degree Days29.9 (Base 50)
Averaged from 85 records on February 21, 2013
WEATHER CONDITIONS BREAKOUT
WIND DIRECTION BREAKOUT
WEATHER BY HOUR - FEBRUARY 21, 2013
[ °C ]   °F
Local TimeTemperatureDewpointHumidityBarometerVisibilityWind DirectionWind SpeedGust SpeedPrecipitationEventsConditions
12:11 AM77.0 °F71.6 °F83 %29.83 in10.0 miENE (60°)15.0 mph23.0 mphScattered Clouds
12:55 AM77.5 °F71.4 °F81 %29.82 in10.0 miENE (60°)15.0 mph24.2 mphScattered Clouds
1:09 AM77.0 °F71.6 °F83 %29.81 in10.0 miNE (50°)18.4 mphMostly Cloudy
1:15 AM77.0 °F71.6 °F83 %29.81 in10.0 miENE (60°)18.4 mphScattered Clouds
1:34 AM77.0 °F71.6 °F83 %29.81 in10.0 miENE (60°)18.4 mphMostly Cloudy
1:38 AM77.0 °F73.4 °F89 %29.81 in10.0 miENE (60°)18.4 mphScattered Clouds
1:55 AM77.7 °F71.8 °F82 %29.80 in10.0 miNE (50°)19.6 mphMostly Cloudy
2:21 AM77.0 °F71.6 °F83 %29.79 in10.0 miENE (60°)18.4 mphMostly Cloudy
2:40 AM75.2 °F73.4 °F94 %29.79 in10.0 miEast (90°)11.5 mphLight Drizzle
2:49 AM75.2 °F73.4 °F94 %29.79 in10.0 miENE (60°)10.4 mphMostly Cloudy
2:55 AM76.1 °F72.9 °F90 %29.79 in10.0 miNE (50°)16.1 mph0.00 inMostly Cloudy
3:00 AM77.0 °F71.6 °F83 %29.78 in10.0 miNE (50°)17.3 mphMostly Cloudy
3:02 AM77.0 °F71.6 °F83 %29.78 in10.0 miNE (50°)17.3 mphMostly Cloudy
3:23 AM77.0 °F71.6 °F83 %29.78 in10.0 miENE (60°)19.6 mphScattered Clouds
3:30 AM77.0 °F71.6 °F83 %29.78 in10.0 miNE (50°)17.3 mphMostly Cloudy
3:37 AM77.0 °F71.6 °F83 %29.78 in10.0 miNE (50°)20.7 mphScattered Clouds
3:51 AM77.0 °F71.6 °F83 %29.78 in10.0 miENE (60°)18.4 mphMostly Cloudy
3:54 AM77.0 °F71.6 °F83 %29.78 in10.0 miNE (50°)20.7 mphScattered Clouds
3:55 AM77.5 °F72.0 °F83 %29.78 in10.0 miNE (50°)20.7 mphScattered Clouds
3:59 AM77.0 °F71.6 °F83 %29.78 in10.0 miNE (50°)21.9 mphMostly Cloudy
4:01 AM77.0 °F71.6 °F83 %29.78 in10.0 miNE (50°)19.6 mphScattered Clouds
4:55 AM77.4 °F70.9 °F80 %29.78 in10.0 miENE (60°)20.7 mph27.6 mphPartly Cloudy
5:55 AM77.2 °F71.6 °F83 %29.79 in10.0 miNE (50°)19.6 mphScattered Clouds
6:25 AM77.0 °F71.6 °F83 %29.81 in10.0 miNE (50°)18.4 mphMostly Cloudy
6:36 AM77.0 °F71.6 °F83 %29.81 in10.0 miNE (50°)18.4 mph25.3 mphScattered Clouds
6:52 AM77.0 °F73.4 °F89 %29.82 in10.0 miENE (60°)18.4 mphMostly Cloudy
6:55 AM77.5 °F72.1 °F83 %29.82 in10.0 miNE (50°)19.6 mphScattered Clouds
6:57 AM77.0 °F71.6 °F83 %29.82 in10.0 miNE (50°)17.3 mphMostly Cloudy
6:58 AM77.0 °F71.6 °F83 %29.82 in10.0 miNE (50°)16.1 mphScattered Clouds
6:59 AM77.0 °F71.6 °F83 %29.82 in10.0 miNE (50°)16.1 mphMostly Cloudy
7:04 AM77.0 °F73.4 °F89 %29.82 in10.0 miNE (50°)19.6 mph24.2 mphScattered Clouds
7:10 AM77.0 °F71.6 °F83 %29.83 in10.0 miNE (50°)17.3 mph24.2 mphMostly Cloudy
7:20 AM77.0 °F71.6 °F83 %29.83 in10.0 miENE (60°)17.3 mph27.6 mphScattered Clouds
7:44 AM78.8 °F73.4 °F83 %29.84 in10.0 miNE (50°)18.4 mphMostly Cloudy
7:47 AM78.8 °F73.4 °F83 %29.84 in10.0 miNE (50°)20.7 mphScattered Clouds
7:55 AM79.3 °F72.3 °F79 %29.84 in10.0 miENE (60°)19.6 mph26.5 mphScattered Clouds
8:35 AM80.6 °F73.4 °F79 %29.85 in10.0 miNE (50°)20.7 mphMostly Cloudy
8:38 AM80.6 °F73.4 °F79 %29.85 in10.0 miNE (50°)19.6 mphMostly Cloudy
8:43 AM78.8 °F71.6 °F78 %29.86 in10.0 miENE (60°)18.4 mphMostly Cloudy
8:45 AM80.6 °F71.6 °F74 %29.86 in10.0 miENE (60°)19.6 mphScattered Clouds
8:55 AM81.3 °F72.9 °F75 %29.86 in10.0 miENE (60°)17.3 mph23.0 mphScattered Clouds
9:12 AM80.6 °F71.6 °F74 %29.86 in10.0 miENE (60°)20.7 mph26.5 mphMostly Cloudy
9:18 AM80.6 °F71.6 °F74 %29.86 in10.0 miENE (60°)20.7 mphScattered Clouds
9:55 AM81.9 °F72.9 °F74 %29.86 in10.0 miENE (60°)20.7 mphScattered Clouds
10:16 AM82.4 °F73.4 °F74 %29.86 in10.0 miENE (60°)23.0 mphMostly Cloudy
10:23 AM82.4 °F73.4 °F74 %29.86 in10.0 miNE (50°)23.0 mphScattered Clouds
10:52 AM84.2 °F73.4 °F70 %29.85 in10.0 miENE (60°)17.3 mphMostly Cloudy
10:55 AM84.0 °F73.8 °F71 %29.85 in10.0 miEast (80°)20.7 mphMostly Cloudy
11:02 AM84.2 °F73.4 °F70 %29.84 in10.0 miENE (70°)18.4 mphScattered Clouds
11:04 AM84.2 °F73.4 °F70 %29.84 in10.0 miENE (60°)17.3 mphMostly Cloudy
11:22 AM82.4 °F73.4 °F74 %29.84 in10.0 miENE (60°)16.1 mphMostly Cloudy
11:52 AM84.2 °F73.4 °F70 %29.84 in10.0 miENE (70°)20.7 mph25.3 mphMostly Cloudy
11:55 AM82.9 °F72.5 °F71 %29.84 in10.0 miENE (60°)15.0 mph25.3 mphMostly Cloudy
12:51 PM82.4 °F71.6 °F70 %29.82 in10.0 miENE (60°)18.4 mphScattered Clouds
12:55 PM83.5 °F72.9 °F70 %29.82 in10.0 miENE (60°)17.3 mph24.2 mphScattered Clouds
1:55 PM84.6 °F72.0 °F66 %29.81 in10.0 miNE (50°)19.6 mphClear
2:55 PM83.7 °F72.5 °F69 %29.80 in10.0 miENE (70°)18.4 mphPartly Cloudy
3:55 PM82.8 °F72.3 °F71 %29.79 in10.0 miENE (60°)17.3 mph24.2 mphPartly Cloudy
4:55 PM81.1 °F72.0 °F74 %29.80 in10.0 miENE (70°)18.4 mph23.0 mphPartly Cloudy
5:21 PM80.6 °F71.6 °F74 %29.81 in10.0 miENE (60°)18.4 mphMostly Cloudy
5:29 PM80.6 °F71.6 °F74 %29.81 in10.0 miENE (60°)16.1 mphScattered Clouds
5:55 PM79.7 °F72.0 °F77 %29.82 in10.0 miENE (60°)17.3 mphPartly Cloudy
6:35 PM78.8 °F71.6 °F78 %29.83 in10.0 miENE (60°)16.1 mphMostly Cloudy
6:37 PM78.8 °F71.6 °F78 %29.83 in10.0 miENE (60°)16.1 mphScattered Clouds
6:38 PM78.8 °F71.6 °F78 %29.83 in10.0 miENE (60°)15.0 mphMostly Cloudy
6:43 PM78.8 °F71.6 °F78 %29.83 in10.0 miENE (70°)17.3 mphRainLight Rain
6:55 PM77.7 °F72.0 °F82 %29.84 in10.0 miENE (60°)18.4 mph0.00 inMostly Cloudy
6:59 PM77.0 °F71.6 °F83 %29.84 in10.0 miENE (60°)16.1 mphScattered Clouds
7:38 PM77.0 °F71.6 °F83 %29.85 in10.0 miENE (60°)17.3 mphMostly Cloudy
7:41 PM77.0 °F71.6 °F83 %29.85 in10.0 miENE (60°)17.3 mphScattered Clouds
7:55 PM77.4 °F71.8 °F83 %29.86 in10.0 miENE (60°)16.1 mphScattered Clouds
8:43 PM77.0 °F71.6 °F83 %29.87 in10.0 miENE (60°)16.1 mphMostly Cloudy
8:55 PM77.9 °F72.1 °F82 %29.87 in10.0 miENE (60°)17.3 mph23.0 mphMostly Cloudy
9:01 PM77.0 °F73.4 °F89 %29.87 in10.0 miENE (60°)16.1 mphScattered Clouds
9:23 PM77.0 °F71.6 °F83 %29.88 in10.0 miENE (60°)17.3 mphMostly Cloudy
9:28 PM77.0 °F71.6 °F83 %29.88 in10.0 miENE (60°)13.8 mphScattered Clouds
9:55 PM77.2 °F71.6 °F83 %29.88 in10.0 miENE (60°)15.0 mphPartly Cloudy
10:22 PM77.0 °F73.4 °F89 %29.88 in10.0 miENE (60°)15.0 mphMostly Cloudy
10:27 PM77.0 °F73.4 °F89 %29.88 in10.0 miNE (50°)18.4 mphScattered Clouds
10:31 PM77.0 °F71.6 °F83 %29.88 in10.0 miENE (60°)18.4 mphMostly Cloudy
10:33 PM77.0 °F71.6 °F83 %29.88 in10.0 miENE (60°)16.1 mphScattered Clouds
10:55 PM77.7 °F71.8 °F82 %29.88 in10.0 miENE (60°)15.0 mphScattered Clouds
11:12 PM77.0 °F71.6 °F83 %29.88 in10.0 miENE (60°)15.0 mphMostly Cloudy
11:23 PM77.0 °F71.6 °F83 %29.87 in10.0 miENE (60°)18.4 mphScattered Clouds
11:55 PM77.2 °F72.0 °F84 %29.86 in10.0 miENE (70°)13.8 mphScattered Clouds
Hourly data recorded from PGUA, located miles away from Mangilao, Guam







STORIES FROM OUR PARTNERS